DateTimeUTC,F1_A11,F1_S11,BsB_S11,BsG_S11,BsR_S11,BbsB_S11,BbsG_S11,BbsR_S11,BaB_A11,BaG_A11,BaR_A11,Tu_S11,T_S11,Uu_S11,U_S11,P_S11,T1_A11
2021-06-17T10:00:00Z,00000200,20000000,,,,,,,0000.18,0000.43,-000.09,17.5,24.4,02.0,01.3,0668.0,31.0
2021-06-17T10:01:00Z,00000200,20000000,,,,,,,-000.13,-000.17,0000.29,17.5,24.4,02.0,01.3,0668.0,31.0
2021-06-17T10:02:00Z,00000200,20000000,,,,,,,0000.15,-000.11,-000.23,17.5,24.4,02.0,01.3,0668.0,31.0
2021-06-17T10:03:00Z,00000200,60000000,,,,,,,0000.38,0000.58,0000.52,17.5,24.5,02.0,01.3,0668.0,31.1
2021-06-17T10:04:00Z,00000200,40000000,0000.40,0000.29,0000.15,0000.07,0000.22,-000.06,0000.19,0000.53,-000.21,17.8,24.4,02.2,01.5,0668.9,31.0
2021-06-17T10:05:00Z,00000200,00000000,0001.07,0000.63,0000.38,0000.75,0000.44,0000.18,0000.31,-000.36,0000.58,17.8,24.3,02.1,01.4,0669.0,31.0
2021-06-17T10:06:00Z,00000200,00000000,0001.51,0000.82,0000.25,0000.06,0000.35,0000.14,0000.47,0000.58,-000.28,17.8,24.3,02.3,01.5,0669.0,31.0
2021-06-17T10:07:00Z,00000200,00000000,0000.31,0000.52,0000.21,-000.32,0000.31,-000.02,0000.18,0000.35,0000.56,17.8,24.3,02.3,01.5,0669.0,31.0
2021-06-17T10:08:00Z,00000200,00000000,0000.87,0000.49,0000.06,-000.19,0000.55,0000.02,0000.15,0000.16,-000.04,17.8,24.3,02.2,01.5,0669.0,31.0
2021-06-17T10:09:00Z,00000200,00000000,0001.52,0000.54,0000.19,0000.47,0000.15,0000.11,0000.76,0000.62,0000.33,17.8,24.2,02.2,01.5,0669.0,31.0
2021-06-17T10:10:00Z,00000200,00000000,0001.34,0000.78,0000.22,-000.32,0000.26,0000.25,-000.14,0000.15,0000.12,17.8,24.2,02.4,01.6,0669.0,31.0
2021-06-17T10:11:00Z,00000200,00000000,0001.16,0000.33,0000.58,-000.19,0000.14,0000.38,0000.52,0000.22,0000.29,17.7,24.2,02.4,01.6,0669.0,31.0
2021-06-17T10:12:00Z,00000200,00000000,0001.16,0000.36,0000.31,0000.12,0000.24,0000.31,0000.56,0000.16,0000.07,17.7,24.2,02.3,01.6,0669.0,31.0
2021-06-17T10:13:00Z,00000200,01000000,0001.27,0000.55,0000.34,0000.25,0000.38,-000.10,0000.08,0000.35,0000.39,17.7,24.2,02.3,01.6,0669.0,31.0
2021-06-17T10:14:00Z,00000200,00000000,0000.68,0000.49,0000.24,0000.00,0000.01,0000.12,0000.34,0000.29,0000.36,17.7,24.2,02.4,01.6,0669.0,31.0
2021-06-17T10:15:00Z,00000200,00000000,0001.32,0000.35,0000.36,0000.38,0000.36,0000.07,0000.39,0000.47,0000.19,17.8,24.2,02.5,01.7,0669.0,31.1
2021-06-17T10:16:00Z,00000200,00000000,0001.22,0000.72,0000.18,0000.25,0000.38,0000.15,0000.42,-000.08,0000.46,17.8,24.3,02.5,01.7,0669.0,31.0
2021-06-17T10:17:00Z,00000200,00000000,0000.89,0000.38,0000.37,0000.44,0000.50,0000.22,0000.26,0000.34,-000.33,17.9,24.3,02.5,01.7,0669.0,31.0
2021-06-17T10:18:00Z,00000200,00000000,0000.95,0000.53,0000.31,0000.09,0000.12,0000.01,0000.08,0000.51,0000.68,17.9,24.3,02.4,01.6,0669.0,31.0
2021-06-17T10:19:00Z,00000200,00000000,0000.37,0000.25,0000.27,0000.06,0000.60,-000.07,0000.46,0000.38,-000.09,17.9,24.3,02.4,01.6,0669.0,31.0
2021-06-17T10:20:00Z,00000200,00000000,0000.17,0000.47,0000.58,-000.08,0000.31,-000.02,0000.18,0000.13,0000.13,17.9,24.3,02.6,01.7,0669.0,31.0
2021-06-17T10:21:00Z,00000200,00000000,0001.24,0000.57,-000.13,0000.14,0000.46,0000.11,0000.39,0000.14,-000.02,17.9,24.3,02.5,01.7,0669.0,31.0
2021-06-17T10:22:00Z,00000200,00000000,0001.69,0000.37,0000.38,-000.03,0000.39,0000.01,0000.07,0000.22,0000.34,17.9,24.3,02.5,01.7,0668.9,31.0
2021-06-17T10:23:00Z,00000200,00000000,0001.15,0000.41,0000.10,0000.29,0000.18,0000.18,0000.54,0000.43,0000.48,17.8,24.3,02.4,01.6,0669.0,31.0
2021-06-17T10:24:00Z,00000200,00000000,0000.86,0000.47,0000.58,0000.36,0000.07,0000.02,0000.83,0000.31,0000.22,17.8,24.3,02.5,01.7,0669.0,31.0
2021-06-17T10:25:00Z,00000200,00000000,0000.64,0000.63,-000.01,-000.02,0000.16,0000.04,-000.22,0000.32,0000.08,17.8,24.2,02.5,01.7,0669.0,31.0
2021-06-17T10:26:00Z,00000200,00000000,0000.72,0000.52,0000.43,-000.24,-000.03,0000.13,0000.27,0000.25,0000.06,17.8,24.2,02.5,01.7,0669.0,31.0
2021-06-17T10:27:00Z,00000200,00000000,0001.11,0000.38,0000.20,-000.38,0000.40,-000.08,0000.26,0000.10,0000.35,17.8,24.2,02.5,01.7,0669.0,31.0
2021-06-17T10:28:00Z,00000200,00000000,0001.43,0000.43,0000.34,-000.09,0000.34,0000.10,0000.25,0000.09,0000.15,17.8,24.2,02.5,01.7,0669.0,31.0
2021-06-17T10:29:00Z,00000200,00000000,0000.98,0000.84,0000.42,-000.01,0000.33,-000.06,0000.35,0000.45,0000.06,17.8,24.2,02.6,01.8,0669.0,31.0
2021-06-17T10:30:00Z,00000200,00000000,0001.03,0000.41,0000.20,0000.15,0000.35,0000.09,0000.36,-000.08,0000.47,17.9,24.3,02.6,01.7,0669.0,31.0
2021-06-17T10:31:00Z,00000200,00000000,0000.85,0000.38,0000.29,0000.44,0000.17,-000.07,0000.28,0000.38,0000.08,17.9,24.3,02.6,01.7,0669.0,31.0
2021-06-17T10:32:00Z,00000200,00000000,0001.05,0000.41,0000.29,0000.04,0000.37,0000.15,0000.27,0000.60,0000.36,18.0,24.3,02.5,01.7,0669.0,31.0
2021-06-17T10:33:00Z,00000200,00000000,0001.34,0000.88,0000.44,0000.34,0000.06,-000.30,0000.31,0000.33,-000.20,18.0,24.3,02.7,01.8,0669.0,31.0
2021-06-17T10:34:00Z,00000200,00000000,0001.27,0000.35,0000.31,-000.14,0000.37,0000.25,0000.58,0000.54,0000.50,18.0,24.3,02.7,01.8,0669.0,31.1
2021-06-17T10:35:00Z,00000200,00000000,0001.15,0000.68,0000.14,0000.28,0000.25,-000.15,0000.00,-000.05,-000.08,18.0,24.3,02.6,01.8,0669.0,31.0
2021-06-17T10:36:00Z,00000200,00000000,0001.15,0000.27,0000.21,0000.27,0000.29,0000.13,0000.26,0000.20,0000.31,18.0,24.3,02.5,01.7,0669.0,31.0
2021-06-17T10:37:00Z,00000200,00000000,0000.89,0000.44,0000.32,0000.35,0000.28,-000.04,0000.27,0000.12,0000.09,18.0,24.3,02.6,01.8,0669.0,31.0
2021-06-17T10:38:00Z,00000200,00000000,0000.43,0000.15,0000.22,0000.03,0000.31,-000.32,0000.34,0000.54,0000.43,17.9,24.3,02.6,01.8,0669.0,31.0
2021-06-17T10:39:00Z,00000200,00000000,0000.82,0000.22,0000.48,0000.41,0000.17,-000.02,0000.41,0000.31,0000.23,17.9,24.3,02.6,01.8,0669.0,31.0
2021-06-17T10:40:00Z,00000200,00000000,0001.20,0000.32,0000.22,-000.20,0000.13,0000.23,0000.40,0000.07,-000.08,17.9,24.3,02.7,01.8,0669.0,31.0
2021-06-17T10:41:00Z,00000200,00000000,0001.47,0000.21,0000.34,0000.00,0000.36,0000.30,-000.02,0000.41,0000.21,17.9,24.3,02.7,01.8,0669.1,31.0
2021-06-17T10:42:00Z,00000200,00000000,0001.53,0000.72,0000.36,0000.23,0000.34,-000.00,0000.55,-000.04,0000.50,17.9,24.3,02.7,01.8,0669.0,31.0
2021-06-17T10:43:00Z,00000200,00000000,0000.53,0000.69,0000.24,-000.06,0000.31,-000.15,0000.13,0000.58,-000.08,17.9,24.2,02.6,01.8,0669.0,31.0
2021-06-17T10:44:00Z,00000200,00000000,0001.68,0000.67,0000.40,0000.12,0000.28,-000.09,0000.60,0000.35,0000.63,17.9,24.2,02.8,01.9,0669.1,31.0
2021-06-17T10:45:00Z,00000200,00000000,0000.63,0000.54,0000.38,-000.07,0000.35,0000.12,0000.09,0000.10,-000.42,17.9,24.3,02.8,01.9,0669.1,31.0
2021-06-17T10:46:00Z,00000200,00000000,0001.45,0000.46,0000.09,-000.13,0000.56,0000.12,-000.05,0000.26,0000.28,17.9,24.3,02.7,01.8,0669.1,31.0
2021-06-17T10:47:00Z,00000200,00000000,0001.30,0000.37,0000.37,0000.27,0000.20,0000.08,0000.65,0000.32,0000.52,17.9,24.3,02.7,01.8,0669.0,31.1
2021-06-17T10:48:00Z,00000200,00000000,0001.32,0000.64,0000.32,0000.13,0000.23,0000.21,0000.37,0000.65,-000.36,18.0,24.3,02.7,01.9,0669.1,31.0
2021-06-17T10:49:00Z,00000200,00000000,0001.28,0000.60,0000.26,-000.12,0000.39,0000.14,0000.39,0000.05,0001.02,18.0,24.3,02.7,01.8,0669.1,31.0
2021-06-17T10:50:00Z,00000200,00000000,0000.65,0000.51,0000.43,0000.08,0000.43,0000.20,0000.46,0000.26,0000.06,17.9,24.3,02.8,01.9,0669.1,31.0
2021-06-17T10:51:00Z,00000200,00000000,0000.89,0000.47,0000.30,0000.46,0000.42,0000.18,-000.01,0000.18,0000.03,17.9,24.3,02.8,01.9,0669.1,31.0
2021-06-17T10:52:00Z,00000200,00000000,0001.20,0000.65,0000.50,0000.36,0000.39,0000.07,0000.28,0000.03,0000.16,17.9,24.3,02.7,01.8,0669.0,31.0
2021-06-17T10:53:00Z,00000200,00000000,0001.62,0000.94,-000.01,-000.29,-000.04,-000.25,0000.32,0000.57,0000.19,17.9,24.3,02.8,01.9,0669.0,31.0
2021-06-17T10:54:00Z,00000200,00000000,0000.97,0000.65,0000.28,0000.18,0000.33,0000.06,0000.44,0000.14,0000.40,17.9,24.3,02.7,01.8,0669.1,31.0
2021-06-17T10:55:00Z,00000200,00000000,0001.22,0000.68,0000.24,0000.00,0000.45,-000.16,0000.48,0000.22,-000.04,17.9,24.3,02.8,01.9,0669.1,31.0
2021-06-17T10:56:00Z,00000200,00000000,0000.72,0000.69,0000.25,0000.06,0000.14,-000.12,-000.03,0000.48,0000.43,17.9,24.3,02.8,01.9,0669.0,31.0
2021-06-17T10:57:00Z,00000200,40000000,,,,,,,0000.01,-000.27,-000.35,17.9,24.3,02.8,01.9,0669.1,31.0
2021-06-17T10:58:00Z,00000200,60000000,,,,,,,0000.08,0000.27,0000.02,17.6,24.4,02.7,01.8,0668.1,31.0
2021-06-17T10:59:00Z,00000200,20000000,,,,,,,-000.02,-000.12,-000.07,17.6,24.5,02.6,01.7,0668.0,31.0
